[[{"header":{"parameterUnit":"m.s-1","parameterCategory":1,"la1":30.2991,"la2":30.254,"lo1":-89.0895,"lo2":-89.0444,"dy":0.0017,"dx":0.0017,"nx":28,"ny":28,"refTime":"2025-08-05T03:00:00:Z","depth":0,"parameterNumber":2,"parameterNumberName":"U-component_of_WINDS"},"data":[0,0,0,0,0,0,0,0,0,0,0,0,0,0,0,0,0,0,0,0,0,0,0,0,0,0,0,0,0,0,0,0,0,0,0,0,0,0,0,0,0,0,0,0,0,0,0,0,0,0,0,0,0,0,0,0,0,0,-1.0272,-1.027,0,-1.0157,-1.0156,-1.0155,-1.0114,-1.0114,-1.0115,-1.0115,-0.9998,-0.9994,-0.9991,0,0,0,0,0,0,0,0,0,0,0,0,0,-1.0454,-1.0451,-1.0272,-1.027,-1.0269,-1.0157,-1.0156,-1.0154,-1.0114,-1.0114,-1.0115,-1.0115,-0.9999,-0.9995,-0.9991,0,0,0,0,0,0,0,0,0,0,0,0,0,-1.0361,-1.045,-1.0272,-1.0235,-1.0231,-1.0158,-1.0156,-1.0154,-1.0114,-1.0114,-1.0115,-1.0115,-1.0,-0.9995,-0.999,-0.9945,0,0,-0.9974,-0.9972,0,0,0,0,0,0,0,0,-1.0366,-1.0354,-1.0242,-1.0238,-1.0232,-1.015,-1.0177,-1.0084,-1.0113,-1.0158,-1.0115,-1.0116,-1.0048,-1.0039,-1.0016,-0.994,-0.9935,-0.9973,-0.997,-0.9968,-0.9966,0,0,0,0,0,0,0,-1.0372,-1.0359,-1.0226,-1.024,-1.0235,-1.0224,-1.0211,-1.0159,-1.0101,-1.0154,-1.0151,-1.0138,-1.0046,-1.0021,-1.0013,-0.9933,-0.9974,-0.9969,-0.9966,-0.9964,-0.9812,-0.9811,0,0,0,0,0,0,-1.0385,-1.0364,-1.023,-1.0223,-1.0302,-1.022,-1.0206,-1.0176,-1.0101,-1.0091,-1.0138,-1.0137,-1.003,-1.0019,-1.0009,-0.9949,-0.9968,-0.9963,-0.996,-0.9812,-0.9811,-0.981,0,0,0,0,0,0,-1.0389,-1.0374,-1.0235,-1.0293,-1.0274,-1.0216,-1.0183,-1.0173,-1.0149,-1.0089,-1.0078,-1.0123,-1.003,-1.0016,-0.9961,-0.9945,-0.9961,-0.9956,-0.9813,-0.9812,-0.9811,-0.9831,0,0,0,0,0,0,-1.0395,-1.0375,-1.0358,-1.0293,-1.0271,-1.0189,-1.0182,-1.0171,-1.014,-1.0138,-1.0073,-1.0063,-1.0029,-0.9969,-0.9955,-0.9938,-0.9952,-0.9815,-0.9813,-0.9811,-0.9832,-0.9831,-0.983,0,0,0,0,0,-1.0401,-1.0369,-1.0357,-1.0341,-1.0248,-1.0188,-1.0176,-1.0138,-1.0139,-1.0121,-1.0082,-1.0065,-0.9949,-0.9963,-0.9948,-0.9929,-0.9815,-0.9813,-0.9811,-0.9832,-0.9831,-0.983,0,0,0,0,0,0,-1.0434,-1.036,-1.0346,-1.0292,-1.0246,-1.0181,-1.0157,-1.0139,-1.0092,-1.0092,-1.0047,-1.0033,-0.998,-0.9949,-0.9967,-0.988,-0.9881,-0.9876,-0.9902,-0.9901,-0.99,-0.9908,-0.9947,0,0,0,0,0,-1.0435,-1.0393,-1.033,-1.0288,-1.0266,-1.0215,-1.0188,-1.0163,-1.0114,-1.0095,-1.0052,-1.0005,-0.9958,-0.9928,-0.9881,-0.9828,-0.9812,-0.9807,-0.9806,-0.9806,-0.9801,-0.9768,-0.9764,-0.9804,-0.9804,-0.9804,0,0,-1.0436,-1.039,-1.0366,-1.0293,-1.0255,-1.0211,-1.02,-1.0154,-1.0121,-1.0088,-1.0032,-0.9999,-0.9944,-0.9889,-0.9862,-0.9861,-0.9787,-0.9803,-0.9803,-0.9799,-0.9766,-0.9762,-0.9759,-0.9802,-0.9803,-0.9803,0,0,-1.0416,-1.0378,-1.0337,-1.0299,-1.0242,-1.0209,-1.0199,-1.0136,-1.0113,-1.0056,-1.003,-0.999,-0.991,-0.9871,-0.9841,-0.9805,-0.9787,-0.9792,-0.9786,-0.9755,-0.9752,-0.9749,-0.9734,-0.9729,-0.9788,-0.9788,-0.9788,0,-1.0425,-1.0358,-1.0319,-1.0274,-1.0242,-1.021,-1.0168,-1.0133,-1.0064,-1.0042,-1.0042,-0.994,-0.9901,-0.9835,-0.9826,-0.9803,-0.979,-0.9798,-0.9755,-0.9752,-0.9748,-0.9734,-0.9728,-0.9788,-0.9788,-0.9788,-0.9788,0,-1.0371,-1.0325,-1.0299,-1.0232,-1.0197,-1.0154,-1.0108,-1.0077,-1.0055,-1.0021,-0.9963,-0.9915,-0.9857,-0.984,-0.9819,-0.9771,-0.9771,-0.9764,-0.9764,-0.9746,-0.9731,-0.9725,-0.979,-0.9789,-0.9789,-0.9789,0,0,-1.0367,-1.0279,-1.027,-1.0238,-1.0172,-1.0135,-1.009,-1.0033,-1.0007,-0.996,-0.992,-0.9853,-0.9845,-0.9811,-0.9785,-0.9757,-0.9729,-0.9753,-0.9751,-0.9748,-0.967,-0.9675,-0.9669,-0.9717,-0.9716,-0.9715,-0.9674,0,-1.0337,-1.0255,-1.0218,-1.0152,-1.0108,-1.0077,-1.0037,-0.9992,-0.996,-0.9917,-0.9881,-0.9833,-0.9828,-0.9806,-0.9778,-0.9738,-0.9712,-0.9741,-0.9678,-0.9676,-0.9691,-0.9662,-0.9666,-0.963,-0.9668,-0.9667,-0.9667,0,-1.029,-1.0242,-1.0172,-1.0109,-1.0089,-1.0055,-0.9998,-0.9959,-0.9906,-0.9884,-0.9846,-0.982,-0.9771,-0.9775,-0.9706,-0.9726,-0.9698,-0.9675,-0.9672,-0.9663,-0.9669,-0.965,-0.9618,-0.9612,-0.9658,-0.9658,-0.9659,0,-1.0292,-1.021,-1.0157,-1.0131,-1.0057,-1.0033,-1.0001,-0.9949,-0.9917,-0.9868,-0.9846,-0.9793,-0.9763,-0.9722,-0.9682,-0.9689,-0.9616,-0.9617,-0.9595,-0.9595,-0.9579,-0.958,-0.954,-0.9565,-0.9565,-0.9565,-0.9565,0,-1.0261,-1.0218,-1.0156,-1.0124,-1.0075,-1.0033,-0.9986,-0.9952,-0.9905,-0.9865,-0.9835,-0.9797,-0.9748,-0.9704,-0.9673,-0.9619,-0.9606,-0.9586,-0.9578,-0.9587,-0.9589,-0.9567,-0.9567,-0.9564,-0.9564,-0.9564,-0.9565,0,-1.0254,-1.0211,-1.0151,-1.0085,-1.0068,-1.0035,-0.9978,-0.9945,-0.9911,-0.9859,-0.9845,-0.9791,-0.9737,-0.9694,-0.9624,-0.9603,-0.9545,-0.9537,-0.9563,-0.9558,-0.9537,-0.9538,-0.9479,-0.9468,-0.9503,-0.9503,-0.9502,0,-1.0236,-1.0203,-1.0133,-1.0104,-1.0072,-1.0025,-0.9991,-0.9948,-0.9914,-0.9851,-0.9825,-0.9769,-0.9722,-0.9637,-0.9591,-0.9537,-0.9526,-0.9509,-0.9518,-0.9528,-0.9523,-0.9525,-0.952,-0.9508,-0.9508,-0.9508,-0.9507,0,-1.0208,-1.0188,-1.014,-1.0085,-1.0046,-1.0,-0.9954,-0.9931,-0.988,-0.9843,-0.9787,-0.9751,-0.9679,-0.9623,-0.9564,-0.953,-0.9509,-0.9505,-0.9497,-0.9505,-0.952,-0.9509,-0.9558,-0.9506,-0.9507,-0.9507,-0.9507,-0.9507,-1.0193,-1.0161,-1.0106,-1.0054,-1.0015,-0.9972,-0.9936,-0.9897,-0.985,-0.9787,-0.9765,-0.9707,-0.9654,-0.9572,-0.9539,-0.9492,-0.949,-0.9479,-0.9475,-0.9472,-0.9472,-0.9529,-0.9482,-0.9482,-0.9482,-0.9482,-0.9482,0,-1.0161,-1.0124,-1.0077,-1.0012,-0.9971,-0.9955,-0.9903,-0.9869,-0.9818,-0.9771,-0.9724,-0.9659,-0.9605,-0.9554,-0.9497,-0.9469,-0.9458,-0.9456,-0.9456,-0.9448,-0.9478,-0.949,-0.9465,-0.9465,-0.9465,-0.9465,-0.9465,-0.9465,-1.0139,-1.0083,-1.0057,-0.998,-0.9944,-0.9887,-0.9858,-0.9817,-0.9778,-0.9707,-0.9661,-0.9629,-0.9579,-0.9518,-0.9466,-0.9453,-0.9432,-0.9431,-0.9415,-0.9444,-0.9446,-0.9448,-0.9459,-0.9428,-0.9428,-0.9388,-0.9388,-0.9388]},{"header":{"parameterUnit":"m.s-1","parameterCategory":1,"la1":30.2991,"la2":30.254,"lo1":-89.0895,"lo2":-89.0444,"dy":0.0017,"dx":0.0017,"nx":28,"ny":28,"refTime":"2025-08-05T03:00:00:Z","depth":0,"parameterNumber":3,"parameterNumberName":"V-component_of_WINDS"},"data":[0,0,0,0,0,0,0,0,0,0,0,0,0,0,0,0,0,0,0,0,0,0,0,0,0,0,0,0,0,0,0,0,0,0,0,0,0,0,0,0,0,0,0,0,0,0,0,0,0,0,0,0,0,0,0,0,0,0,0.5852,0.5852,0,0.5911,0.5912,0.5912,0.5966,0.5966,0.5967,0.5967,0.6031,0.6032,0.6033,0,0,0,0,0,0,0,0,0,0,0,0,0,0.5788,0.5789,0.5851,0.5852,0.5853,0.5911,0.5912,0.5912,0.5965,0.5966,0.5967,0.5968,0.603,0.6032,0.6033,0,0,0,0,0,0,0,0,0,0,0,0,0,0.5829,0.579,0.5851,0.5886,0.589,0.5911,0.5912,0.5913,0.5965,0.5966,0.5967,0.5968,0.603,0.6031,0.6033,0.6024,0,0,0.6038,0.6039,0,0,0,0,0,0,0,0,0.5826,0.5831,0.5881,0.5884,0.5888,0.5932,0.5913,0.595,0.5965,0.5937,0.5967,0.5969,0.5997,0.6002,0.6011,0.6027,0.603,0.6038,0.6039,0.604,0.604,0,0,0,0,0,0,0,0.5823,0.5829,0.5875,0.5881,0.5886,0.5901,0.5907,0.592,0.5961,0.5939,0.5943,0.595,0.5999,0.6009,0.6013,0.6031,0.6038,0.604,0.6041,0.6041,0.6047,0.6046,0,0,0,0,0,0,0.5815,0.5826,0.5873,0.5877,0.5859,0.5901,0.5908,0.5917,0.5961,0.5969,0.5949,0.5952,0.6006,0.6011,0.6015,0.6009,0.604,0.6041,0.6042,0.6048,0.6047,0.6046,0,0,0,0,0,0,0.5813,0.5818,0.5871,0.5853,0.586,0.5901,0.591,0.5918,0.5927,0.5968,0.5976,0.595,0.6007,0.6013,0.6022,0.6012,0.6042,0.6044,0.6049,0.6047,0.6046,0.5997,0,0,0,0,0,0,0.5811,0.5818,0.5813,0.5852,0.5861,0.5875,0.5909,0.5918,0.5929,0.5934,0.5972,0.5979,0.6008,0.6019,0.6024,0.6015,0.6045,0.605,0.6048,0.6047,0.5999,0.5994,0.5989,0,0,0,0,0,0.5809,0.5797,0.5813,0.5818,0.5857,0.5875,0.588,0.5912,0.5928,0.5925,0.5952,0.5978,0.6013,0.602,0.6025,0.6017,0.6051,0.6049,0.6047,0.6002,0.5995,0.5989,0,0,0,0,0,0,0.5756,0.5803,0.5821,0.5821,0.5843,0.5883,0.588,0.5904,0.5923,0.5926,0.5967,0.5975,0.5981,0.6,0.6007,0.6012,0.6035,0.6034,0.5999,0.5993,0.5988,0.5983,0.6046,0,0,0,0,0,0.5745,0.5754,0.5795,0.5791,0.5802,0.5839,0.5848,0.5872,0.5897,0.5907,0.5934,0.5959,0.5976,0.5986,0.6003,0.6003,0.6013,0.6,0.5995,0.5991,0.5989,0.5993,0.5988,0.604,0.604,0.604,0,0,0.5721,0.5748,0.5751,0.5782,0.5802,0.5812,0.5847,0.5856,0.5865,0.5908,0.5919,0.594,0.5971,0.5976,0.5979,0.5992,0.5978,0.5988,0.5984,0.5985,0.5991,0.5986,0.5981,0.6038,0.6039,0.6039,0,0,0.5683,0.5704,0.5704,0.5724,0.5754,0.5779,0.5779,0.5816,0.5832,0.5843,0.5877,0.5889,0.5917,0.5937,0.5952,0.5925,0.595,0.593,0.5903,0.5906,0.5902,0.5898,0.589,0.5887,0.5928,0.5928,0.5928,0,0.565,0.5666,0.5701,0.5709,0.5722,0.5762,0.5764,0.5782,0.5816,0.5825,0.5839,0.5876,0.5899,0.591,0.5904,0.5914,0.5917,0.5925,0.5899,0.5896,0.5894,0.5886,0.5883,0.5925,0.5926,0.5926,0.5926,0,0.5625,0.5635,0.5632,0.5664,0.5677,0.5682,0.5719,0.5729,0.5752,0.5776,0.5789,0.5818,0.5844,0.5848,0.5871,0.5864,0.5871,0.5891,0.5915,0.5886,0.5879,0.5877,0.5922,0.5923,0.5923,0.5924,0,0,0.5554,0.5606,0.5605,0.5621,0.5658,0.5668,0.5676,0.57,0.5708,0.5731,0.574,0.5763,0.5783,0.5799,0.5825,0.5828,0.5807,0.5849,0.585,0.584,0.5804,0.5788,0.5784,0.5824,0.5824,0.5823,0.5801,0,0.5522,0.5536,0.5569,0.5574,0.5586,0.5626,0.5633,0.5658,0.5681,0.5696,0.5724,0.574,0.5764,0.5775,0.5779,0.5808,0.58,0.581,0.5834,0.5834,0.5825,0.5781,0.5764,0.5741,0.5799,0.5799,0.5798,0,0.5487,0.5508,0.5513,0.5552,0.5558,0.5563,0.559,0.5603,0.5633,0.5651,0.567,0.5698,0.5711,0.5733,0.5753,0.5759,0.5771,0.5787,0.5787,0.5791,0.5814,0.5783,0.5735,0.5731,0.5795,0.5795,0.5795,0,0.5436,0.5465,0.5473,0.5485,0.553,0.5534,0.5553,0.5584,0.5597,0.5621,0.563,0.5655,0.5669,0.5689,0.5725,0.5738,0.5741,0.5766,0.5757,0.5756,0.5756,0.5755,0.5708,0.5763,0.5763,0.5763,0.5763,0,0.5397,0.5399,0.5451,0.5455,0.546,0.5499,0.5503,0.5526,0.5554,0.5565,0.5602,0.5613,0.5659,0.5676,0.5704,0.5717,0.5723,0.5739,0.5746,0.5735,0.5734,0.5744,0.5746,0.5762,0.5762,0.5762,0.5763,0,0.534,0.5374,0.5385,0.5428,0.5439,0.544,0.5477,0.5485,0.5512,0.5526,0.5532,0.5575,0.5597,0.5634,0.5667,0.5687,0.5694,0.5707,0.5683,0.5688,0.5678,0.5679,0.5636,0.5634,0.5689,0.5688,0.5688,0,0.5313,0.5315,0.5358,0.5368,0.5386,0.5401,0.5415,0.5455,0.5469,0.5505,0.5508,0.5533,0.5554,0.5588,0.5623,0.5649,0.5663,0.5647,0.5667,0.5657,0.5664,0.5664,0.5665,0.5642,0.5641,0.564,0.564,0,0.5262,0.5279,0.5297,0.5322,0.5337,0.5359,0.5382,0.5389,0.5434,0.5448,0.547,0.5487,0.5521,0.5546,0.5578,0.56,0.5628,0.5633,0.5633,0.5622,0.5609,0.5617,0.5671,0.5634,0.5635,0.5635,0.5635,0.5635,0.522,0.5225,0.5256,0.5275,0.5297,0.5319,0.5328,0.5357,0.5376,0.5406,0.5429,0.545,0.5484,0.5529,0.555,0.5569,0.5582,0.5581,0.5581,0.558,0.5576,0.5606,0.5575,0.5575,0.5575,0.5575,0.5576,0,0.5171,0.5194,0.5211,0.5243,0.5259,0.5284,0.5312,0.5324,0.5342,0.537,0.5391,0.5418,0.5443,0.5481,0.551,0.5518,0.5532,0.5524,0.5524,0.5529,0.5562,0.556,0.5512,0.5512,0.5512,0.5512,0.5512,0.5512,0.5148,0.5158,0.5179,0.5202,0.5225,0.5245,0.5259,0.5281,0.5304,0.5332,0.5352,0.5377,0.541,0.5442,0.5467,0.5478,0.5487,0.5475,0.549,0.5521,0.5526,0.5532,0.553,0.5477,0.5477,0.5456,0.5456,0.5455]}]]